"Period start","avg(HW err(1)/warn(2) (#))","avg(Visibility (m))","avg(Weather code (#))","avg(Precip intensity (mm/h))","min(HW err(1)/warn(2) (#))","max(HW err(1)/warn(2) (#))","std(HW err(1)/warn(2) (#))","med(HW err(1)/warn(2) (#))","min(Visibility (m))","max(Visibility (m))","std(Visibility (m))","med(Visibility (m))","min(Weather code (#))","max(Weather code (#))","std(Weather code (#))","med(Weather code (#))","min(Precip intensity (mm/h))","max(Precip intensity (mm/h))","std(Precip intensity (mm/h))","med(Precip intensity (mm/h))"
2016-03-21 00:00:00,2,7853,71,0.14,2,2,0,2,6461,9136,863,7941,71,71,0,71,0.05,0.30,0.07,0.12
2016-03-21 00:10:00,2,7587,71,0.14,2,2,0,2,5701,9599,1130,7337,71,71,0,71,0.05,0.30,0.08,0.15
2016-03-21 00:20:00,2,5608,71,0.32,2,2,0,2,4283,7203,835,5576,71,71,0,71,0.10,0.75,0.21,0.28
2016-03-21 00:30:00,2,3654,71,0.57,2,2,0,2,2626,5059,670,3624,71,71,0,71,0.35,0.85,0.15,0.60
2016-03-21 00:40:00,2,3828,71,0.47,2,2,0,2,3208,4907,601,3550,71,71,0,71,0.25,0.65,0.13,0.47
2016-03-21 00:50:00,2,4284,71,0.49,2,2,0,2,3387,5126,586,4326,71,71,0,71,0.25,0.75,0.17,0.42
2016-03-21 01:00:00,2,5899,71,0.37,2,2,0,2,5216,6700,427,5892,71,71,0,71,0.20,0.75,0.16,0.35
2016-03-21 01:10:00,2,6310,73,0.35,2,2,0,2,5754,7217,446,6217,71,77,3,71,0.15,0.55,0.12,0.40
2016-03-21 01:20:00,2,9211,77,0.18,2,2,0,2,6451,12091,1677,9914,77,77,0,77,0.05,0.40,0.11,0.15
2016-03-21 01:30:00,2,25353,70,0.04,2,2,0,2,12304,46463,10425,25248,54,77,11,77,0.00,0.15,0.04,0.05
2016-03-21 01:40:00,2,34325,11,0.00,2,2,0,2,22036,43642,6322,36588,0,54,22,0,0.00,0.00,0.00,0.00
2016-03-21 01:50:00,2,23716,37,0.04,2,2,0,2,14574,35883,8369,22115,0,77,37,36,0.00,0.15,0.05,0.03
2016-03-21 02:00:00,2,10336,77,0.09,2,2,0,2,6950,15652,2845,9828,77,77,0,77,0.05,0.15,0.03,0.10
2016-03-21 02:10:00,2,16763,24,0.02,2,2,0,2,13556,20427,2547,15791,0,77,30,0,0.00,0.05,0.02,0.00
2016-03-21 02:20:00,2,14518,0,0.00,2,2,0,2,9484,20171,3250,14923,0,0,0,0,0.00,0.00,0.00,0.00
2016-03-21 02:30:00,2,23212,0,0.00,2,2,0,2,13748,36257,6986,21581,0,0,0,0,0.00,0.00,0.00,0.00
2016-03-21 02:40:00,2,27170,0,0.00,2,2,0,2,15078,43187,8224,25694,0,0,0,0,0.00,0.00,0.00,0.00
2016-03-21 02:50:00,2,22281,0,0.00,2,2,0,2,17763,28037,3417,21093,0,0,0,0,0.00,0.00,0.00,0.00
2016-03-21 03:00:00,2,18483,22,0.01,2,2,0,2,14185,22762,3002,17663,0,77,33,0,0.00,0.05,0.02,0.00
2016-03-21 03:10:00,2,21678,55,0.02,2,2,0,2,14779,34447,5842,20802,0,77,29,66,0.00,0.10,0.03,0.00
2016-03-21 03:20:00,2,22034,0,0.00,2,2,0,2,15484,32042,4894,21002,0,0,0,0,0.00,0.00,0.00,0.00
2016-03-21 03:30:00,2,32052,0,0.00,2,2,0,2,23559,42872,6088,32185,0,0,0,0,0.00,0.00,0.00,0.00
2016-03-21 03:40:00,2,39922,0,0.00,2,2,0,2,27448,50000,7117,41430,0,0,0,0,0.00,0.00,0.00,0.00
2016-03-21 03:50:00,2,37525,0,0.00,2,2,0,2,21434,50000,10129,37367,0,0,0,0,0.00,0.00,0.00,0.00
2016-03-21 04:00:00,2,46769,0,0.00,2,2,0,2,37116,50000,4208,48573,0,0,0,0,0.00,0.00,0.00,0.00
2016-03-21 04:10:00,2,36555,0,0.00,2,2,0,2,32302,49088,5179,34626,0,0,0,0,0.00,0.00,0.00,0.00
2016-03-21 04:20:00,2,41202,0,0.00,2,2,0,2,27814,50000,9439,46690,0,0,0,0,0.00,0.00,0.00,0.00
2016-03-21 04:30:00,2,42281,0,0.00,2,2,0,2,32034,50000,5007,41100,0,0,0,0,0.00,0.00,0.00,0.00
2016-03-21 04:40:00,2,19081,0,0.00,2,2,0,2,10842,27559,4806,18748,0,0,0,0,0.00,0.00,0.00,0.00
2016-03-21 04:50:00,2,29007,21,0.03,2,2,0,2,16130,39903,7462,30967,0,71,33,0,0.00,0.30,0.09,0.00
2016-03-21 05:00:00,2,38341,0,0.00,2,2,0,2,23975,50000,8273,36866,0,0,0,0,0.00,0.00,0.00,0.00
2016-03-21 05:10:00,2,45077,0,0.00,2,2,0,2,39472,50000,3677,44410,0,0,0,0,0.00,0.00,0.00,0.00
2016-03-21 05:20:00,2,42168,0,0.00,2,2,0,2,32149,49927,5744,44060,0,0,0,0,0.00,0.00,0.00,0.00
2016-03-21 05:30:00,2,23680,0,0.00,2,2,0,2,17350,38835,6881,20511,0,0,0,0,0.00,0.00,0.00,0.00
2016-03-21 05:40:00,2,22156,0,0.00,2,2,0,2,15467,32287,5219,21994,0,0,0,0,0.00,0.00,0.00,0.00
2016-03-21 05:50:00,2,40627,0,0.00,2,2,0,2,32944,47924,5179,39274,0,0,0,0,0.00,0.00,0.00,0.00
2016-03-21 06:00:00,2,40822,0,0.00,2,2,0,2,34876,47705,4177,40842,0,0,0,0,0.00,0.00,0.00,0.00
2016-03-21 06:10:00,2,38609,0,0.00,2,2,0,2,22093,50000,9554,38544,0,0,0,0,0.00,0.00,0.00,0.00
2016-03-21 06:20:00,2,30250,0,0.00,2,2,0,2,22297,40842,6238,28782,0,0,0,0,0.00,0.00,0.00,0.00
2016-03-21 06:30:00,2,40963,0,0.00,2,2,0,2,22974,50000,10187,44218,0,0,0,0,0.00,0.00,0.00,0.00
2016-03-21 06:40:00,2,40523,0,0.00,2,2,0,2,27025,50000,6998,41944,0,0,0,0,0.00,0.00,0.00,0.00
2016-03-21 06:50:00,2,42099,0,0.00,2,2,0,2,33127,50000,6146,44360,0,0,0,0,0.00,0.00,0.00,0.00
2016-03-21 07:00:00,2,46312,0,0.00,2,2,0,2,41975,50000,2835,45710,0,0,0,0,0.00,0.00,0.00,0.00
2016-03-21 07:10:00,2,48056,0,0.00,2,2,0,2,44049,50000,2363,49586,0,0,0,0,0.00,0.00,0.00,0.00
2016-03-21 07:20:00,2,46933,0,0.00,2,2,0,2,39485,50000,4069,50000,0,0,0,0,0.00,0.00,0.00,0.00
2016-03-21 07:30:00,2,47203,0,0.00,2,2,0,2,40861,50000,2808,47168,0,0,0,0,0.00,0.00,0.00,0.00
2016-03-21 07:40:00,2,47239,0,0.00,2,2,0,2,41208,50000,3225,48907,0,0,0,0,0.00,0.00,0.00,0.00
2016-03-21 07:50:00,2,44571,0,0.00,2,2,0,2,30152,50000,6575,47456,0,0,0,0,0.00,0.00,0.00,0.00
2016-03-21 08:00:00,2,49389,0,0.00,2,2,0,2,47084,50000,1043,50000,0,0,0,0,0.00,0.00,0.00,0.00
2016-03-21 08:10:00,2,48670,0,0.00,2,2,0,2,43974,50000,1948,50000,0,0,0,0,0.00,0.00,0.00,0.00
2016-03-21 08:20:00,2,33338,61,0.05,2,2,0,2,10637,44589,13487,40854,0,78,31,78,0.00,0.30,0.09,0.00
2016-03-21 08:30:00,2,17318,71,0.07,2,2,0,2,12421,26771,3806,16962,71,71,0,71,0.00,0.20,0.06,0.05
2016-03-21 08:40:00,2,19923,72,0.10,2,2,0,2,15290,26856,3771,18422,71,77,2,71,0.00,0.50,0.14,0.05
2016-03-21 08:50:00,2,22628,72,0.09,2,2,0,2,15262,37082,5913,20032,71,77,2,71,0.00,0.40,0.11,0.05
2016-03-21 09:00:00,2,23019,71,0.12,2,2,0,2,14554,36631,6962,20038,71,71,0,71,0.00,0.55,0.15,0.10
2016-03-21 09:10:00,2,15835,71,0.12,2,2,0,2,8883,25017,4768,16675,71,71,0,71,0.00,0.35,0.12,0.08
2016-03-21 09:20:00,2,9055,71,0.59,2,2,0,2,4072,14118,2937,8604,71,71,0,71,0.15,1.65,0.42,0.57
2016-03-21 09:30:00,2,14088,71,0.39,2,2,0,2,9503,21948,3011,13777,71,71,0,71,0.05,0.80,0.20,0.35
2016-03-21 09:40:00,2,10587,71,0.34,2,2,0,2,7430,15882,2455,10821,71,71,0,71,0.05,0.60,0.16,0.30
2016-03-21 09:50:00,2,22114,73,0.07,2,2,0,2,14914,27245,4463,22939,71,77,3,71,0.00,0.20,0.06,0.05
2016-03-21 10:00:00,2,24365,77,0.13,2,2,0,2,18651,34153,5050,22325,77,77,0,77,0.00,0.40,0.11,0.10
2016-03-21 10:10:00,2,44314,73,0.02,2,2,0,2,37505,49295,3333,44676,71,77,3,71,0.00,0.05,0.02,0.00
2016-03-21 10:20:00,2,44165,73,0.02,2,2,0,2,32725,50000,6393,45622,71,77,3,71,0.00,0.10,0.03,0.00
2016-03-21 10:30:00,2,49061,23,0.01,2,2,0,2,45671,50000,1362,50000,0,77,35,0,0.00,0.05,0.02,0.00
2016-03-21 10:40:00,2,46806,38,0.01,2,2,0,2,36107,50000,5094,50000,0,77,33,41,0.00,0.05,0.02,0.00
2016-03-21 10:50:00,2,49594,8,0.00,2,2,0,2,47821,50000,686,50000,0,77,23,0,0.00,0.00,0.00,0.00
2016-03-21 11:00:00,2,50000,0,0.00,2,2,0,2,50000,50000,0,50000,0,0,0,0,0.00,0.00,0.00,0.00
2016-03-21 11:10:00,2,50000,0,0.00,2,2,0,2,50000,50000,0,50000,0,0,0,0,0.00,0.00,0.00,0.00
2016-03-21 11:20:00,2,49976,0,0.00,2,2,0,2,49755,50000,74,50000,0,0,0,0,0.00,0.00,0.00,0.00
2016-03-21 11:30:00,2,50000,0,0.00,2,2,0,2,50000,50000,0,50000,0,0,0,0,0.00,0.00,0.00,0.00
2016-03-21 11:40:00,2,50000,0,0.00,2,2,0,2,50000,50000,0,50000,0,0,0,0,0.00,0.00,0.00,0.00
2016-03-21 11:50:00,2,49872,0,0.00,2,2,0,2,48723,50000,383,50000,0,0,0,0,0.00,0.00,0.00,0.00
2016-03-21 12:00:00,2,49601,0,0.00,2,2,0,2,47264,50000,864,50000,0,0,0,0,0.00,0.00,0.00,0.00
2016-03-21 12:10:00,2,49439,0,0.00,2,2,0,2,47912,50000,771,49861,0,0,0,0,0.00,0.00,0.00,0.00
2016-03-21 12:20:00,2,49376,0,0.00,2,2,0,2,45830,50000,1268,50000,0,0,0,0,0.00,0.00,0.00,0.00
2016-03-21 12:30:00,2,49866,0,0.00,2,2,0,2,48661,50000,402,50000,0,0,0,0,0.00,0.00,0.00,0.00
2016-03-21 12:40:00,2,49719,0,0.00,2,2,0,2,47192,50000,842,50000,0,0,0,0,0.00,0.00,0.00,0.00
2016-03-21 12:50:00,2,49586,0,0.00,2,2,0,2,46397,50000,1075,50000,0,0,0,0,0.00,0.00,0.00,0.00
2016-03-21 13:00:00,2,49835,0,0.00,2,2,0,2,48920,50000,325,50000,0,0,0,0,0.00,0.00,0.00,0.00
2016-03-21 13:10:00,2,49614,0,0.00,2,2,0,2,46868,50000,941,50000,0,0,0,0,0.00,0.00,0.00,0.00
2016-03-21 13:20:00,2,49891,0,0.00,2,2,0,2,48998,50000,299,50000,0,0,0,0,0.00,0.00,0.00,0.00
2016-03-21 13:30:00,2,49501,0,0.00,2,2,0,2,46999,50000,904,49926,0,0,0,0,0.00,0.00,0.00,0.00
2016-03-21 13:40:00,2,49453,0,0.00,2,2,0,2,46878,50000,954,50000,0,0,0,0,0.00,0.00,0.00,0.00
2016-03-21 13:50:00,2,49642,0,0.00,2,2,0,2,48070,50000,621,50000,0,0,0,0,0.00,0.00,0.00,0.00
2016-03-21 14:00:00,2,49981,0,0.00,2,2,0,2,49809,50000,57,50000,0,0,0,0,0.00,0.00,0.00,0.00
2016-03-21 14:10:00,2,49832,0,0.00,2,2,0,2,48983,50000,345,50000,0,0,0,0,0.00,0.00,0.00,0.00
2016-03-21 14:20:00,2,49524,0,0.00,2,2,0,2,47198,50000,887,50000,0,0,0,0,0.00,0.00,0.00,0.00
2016-03-21 14:30:00,2,48074,0,0.00,2,2,0,2,43348,50000,2230,49028,0,0,0,0,0.00,0.00,0.00,0.00
2016-03-21 14:40:00,2,28588,0,0.00,2,2,0,2,21809,43707,7455,24265,0,0,0,0,0.00,0.00,0.00,0.00
2016-03-21 14:50:00,2,39226,0,0.00,2,2,0,2,13135,50000,13530,47410,0,0,0,0,0.00,0.00,0.00,0.00
2016-03-21 15:00:00,2,44815,0,0.00,2,2,0,2,28025,50000,7400,49072,0,0,0,0,0.00,0.00,0.00,0.00
2016-03-21 15:10:00,2,16848,0,0.00,2,2,0,2,11651,27412,5268,14795,0,0,0,0,0.00,0.00,0.00,0.00
2016-03-21 15:20:00,2,9665,0,0.00,2,2,0,2,6665,14492,2393,9106,0,0,0,0,0.00,0.00,0.00,0.00
2016-03-21 15:30:00,2,14663,10,0.00,2,2,0,2,8198,25809,5827,13152,10,10,0,10,0.00,0.00,0.00,0.00
2016-03-21 15:40:00,2,9914,1,0.00,2,2,0,2,6816,22966,4518,8276,0,10,3,0,0.00,0.00,0.00,0.00
2016-03-21 15:50:00,2,15617,9,0.00,2,2,0,2,9432,28629,5394,14600,0,10,3,10,0.00,0.00,0.00,0.00
2016-03-21 16:00:00,2,18881,0,0.00,2,2,0,2,11466,28081,5693,17752,0,0,0,0,0.00,0.00,0.00,0.00
2016-03-21 16:10:00,2,17284,0,0.00,2,2,0,2,6942,29731,6201,17450,0,0,0,0,0.00,0.00,0.00,0.00
2016-03-21 16:20:00,2,17282,0,0.00,2,2,0,2,8313,26315,6142,18372,0,0,0,0,0.00,0.00,0.00,0.00
2016-03-21 16:30:00,2,11374,0,0.00,2,2,0,2,5332,20938,4939,10420,0,0,0,0,0.00,0.00,0.00,0.00
2016-03-21 16:40:00,2,19032,0,0.00,2,2,0,2,4720,28691,8275,21392,0,0,0,0,0.00,0.00,0.00,0.00
2016-03-21 16:50:00,2,19976,0,0.00,2,2,0,2,11728,28565,6455,20356,0,0,0,0,0.00,0.00,0.00,0.00
2016-03-21 17:00:00,2,22567,0,0.00,2,2,0,2,11934,33019,6999,19130,0,0,0,0,0.00,0.00,0.00,0.00
2016-03-21 17:10:00,2,14204,0,0.00,2,2,0,2,7971,31917,7141,11762,0,0,0,0,0.00,0.00,0.00,0.00
2016-03-21 17:20:00,2,7503,6,0.00,2,2,0,2,2421,13627,3053,6666,0,10,5,10,0.00,0.00,0.00,0.00
2016-03-21 17:30:00,2,8828,10,0.00,2,2,0,2,5055,16235,3308,8704,10,10,0,10,0.00,0.00,0.00,0.00
2016-03-21 17:40:00,2,23513,5,0.00,2,2,0,2,9481,33968,9423,24928,0,10,5,5,0.00,0.00,0.00,0.00
2016-03-21 17:50:00,2,7267,4,0.00,2,2,0,2,2515,15408,4589,4736,0,10,5,0,0.00,0.00,0.00,0.00
2016-03-21 18:00:00,2,3292,22,0.01,2,2,0,2,1636,7008,1463,2922,10,71,24,10,0.00,0.10,0.03,0.00
2016-03-21 18:10:00,2,1541,76,0.15,2,2,0,2,1075,2419,448,1459,71,77,2,77,0.05,0.35,0.10,0.12
2016-03-21 18:20:00,2,2331,56,0.03,2,2,0,2,1495,2987,440,2352,54,77,7,54,0.00,0.15,0.05,0.00
2016-03-21 18:30:00,2,2187,45,0.10,2,2,0,2,1542,3610,699,2016,10,54,18,54,0.00,0.30,0.10,0.08
2016-03-21 18:40:00,2,3157,13,0.01,2,2,0,2,2205,5398,903,2882,10,41,9,10,0.00,0.05,0.02,0.00
2016-03-21 18:50:00,2,3314,48,0.08,2,2,0,2,1287,7641,1853,2704,10,54,13,54,0.00,0.25,0.09,0.05
2016-03-21 19:00:00,2,11837,10,0.00,2,2,0,2,3099,28892,8531,8169,10,10,0,10,0.00,0.00,0.00,0.00
2016-03-21 19:10:00,2,34013,6,0.00,2,2,0,2,22516,38979,4823,35152,0,10,5,10,0.00,0.00,0.00,0.00
2016-03-21 19:20:00,2,15814,46,0.02,2,2,0,2,5468,29493,8064,14210,0,77,31,54,0.00,0.05,0.02,0.00
2016-03-21 19:30:00,2,14255,25,0.01,2,2,0,2,2484,29271,9590,14054,0,54,24,26,0.00,0.10,0.03,0.00
2016-03-21 19:40:00,2,7292,58,0.02,2,2,0,2,3837,12189,2283,6960,10,77,19,54,0.00,0.05,0.02,0.00
2016-03-21 19:50:00,2,6958,56,0.06,2,2,0,2,3785,13705,3286,5720,10,77,25,62,0.00,0.25,0.09,0.00
2016-03-21 20:00:00,2,6995,49,0.21,2,2,0,2,1011,17163,5252,5090,10,71,27,62,0.00,1.15,0.41,0.00
2016-03-21 20:10:00,2,17430,10,0.00,2,2,0,2,10500,22944,3703,18378,0,71,21,0,0.00,0.00,0.00,0.00
2016-03-21 20:20:00,2,3997,48,0.07,2,2,0,2,2151,11031,2473,3180,0,77,33,62,0.00,0.20,0.06,0.08
2016-03-21 20:30:00,2,6678,36,0.03,2,2,0,2,2440,13350,3379,6451,10,54,22,54,0.00,0.15,0.05,0.00
2016-03-21 20:40:00,2,5420,16,0.03,2,2,0,2,1304,12278,3959,4521,10,71,18,10,0.00,0.30,0.09,0.00
2016-03-21 20:50:00,2,1606,76,0.48,2,2,0,2,855,3512,725,1436,71,77,2,77,0.00,1.30,0.40,0.30
2016-03-21 21:00:00,2,5136,50,0.14,2,2,0,2,1721,10052,2945,4106,10,77,28,54,0.00,0.70,0.22,0.00
2016-03-21 21:10:00,2,13490,8,0.00,2,2,0,2,5962,29015,7402,11810,0,10,4,10,0.00,0.00,0.00,0.00
2016-03-21 21:20:00,2,14217,0,0.00,2,2,0,2,7816,21069,3868,14439,0,0,0,0,0.00,0.00,0.00,0.00
2016-03-21 21:30:00,2,35316,0,0.00,2,2,0,2,9788,49397,13772,42087,0,0,0,0,0.00,0.00,0.00,0.00
2016-03-21 21:40:00,2,6492,31,0.12,2,2,0,2,797,30083,8484,3363,0,77,36,5,0.00,0.70,0.24,0.00
2016-03-21 21:50:00,2,4382,35,0.20,2,2,0,2,850,12674,3579,3011,0,77,28,32,0.00,0.95,0.31,0.03
2016-03-21 22:00:00,2,1156,76,0.70,2,2,0,2,769,2290,443,980,71,77,2,77,0.20,1.80,0.48,0.45
2016-03-21 22:10:00,2,803,75,2.32,2,2,0,2,369,1205,257,832,71,77,3,77,0.85,4.40,0.96,2.05
2016-03-21 22:20:00,2,1729,77,1.10,2,2,0,2,790,2773,674,1784,77,77,0,77,0.45,2.25,0.53,1.00
2016-03-21 22:30:00,2,2040,77,1.40,2,2,0,2,1712,2822,346,1928,77,77,0,77,0.40,3.30,0.78,1.27
2016-03-21 22:40:00,2,1378,73,0.78,2,2,0,2,1087,1624,163,1402,71,77,3,71,0.40,1.70,0.39,0.62
2016-03-21 22:50:00,2,1028,77,1.32,2,2,0,2,784,1354,161,1014,77,77,0,77,0.60,3.30,0.82,1.07
2016-03-21 23:00:00,2,1383,76,0.61,2,2,0,2,1016,1703,216,1354,71,77,2,77,0.35,1.05,0.19,0.57
2016-03-21 23:10:00,2,1859,76,1.32,2,2,0,2,1011,2497,552,1972,71,77,2,77,0.80,2.25,0.47,1.15
2016-03-21 23:20:00,2,1885,71,0.40,2,2,0,2,1164,3021,500,1758,64,77,5,71,0.20,0.75,0.19,0.35
2016-03-21 23:30:00,2,2618,60,0.12,2,2,0,2,1520,3355,578,2825,54,77,10,54,0.05,0.25,0.06,0.12
2016-03-21 23:40:00,2,1944,67,0.19,2,2,0,2,1388,2538,402,1886,54,77,11,71,0.05,0.30,0.08,0.20
2016-03-21 23:50:00,2,2674,53,0.11,2,2,0,2,1861,3906,556,2520,41,54,4,54,0.05,0.20,0.05,0.10
